Location: S�tio Afonso Gruber
(26.1760°S, 49.5250°W)
Time: 13:56:26
(UTC+00:00)

SL-4 R/B - Pass Details

Date: 07 June 2020
Orbit: 428 x 666 km, 51.6° (Epoch: 07 July)

Event Time Altitude Azimuth Distance (km) Brightness Sun altitude
Rises 09:32:13 0° 331° (NNW) 2,658 5.4 -6.7°
Reaches altitude 10° 09:34:33 10° 336° (NNW) 1,732 4.6 -6.2°
Maximum altitude 09:38:19 47° 51° (NE) 653 3.0 -5.4°
Drops below altitude 10° 09:41:51 10° 125° (SE) 1,630 4.9 -4.7°
Sets 09:43:59 0° 131° (SE) 2,481 5.7 -4.3°
